Location: Unspecified
(44.4377°N, 88.0525°W)
Time: 03:21:22
(UTC-06:00)

Okean 3 - Visible Passes

Search period start: 27 November 2014 00:00
Search period end: 07 December 2014 00:00
Orbit: 581 x 610 km, 82.5° (Epoch: 26 November)

Date Brightness Start Highest point End Pass type
(mag) Time Alt. Az. Time Alt. Az. Time Alt. Az.
27 Nov 5.8 16:57:23 10° SW 17:00:52 24° WNW 17:04:20 10° NNW visible
28 Nov 6.2 17:08:16 10° WSW 17:10:59 16° WNW 17:13:42 10° NNW visible
29 Nov 6.5 17:20:00 10° W 17:21:09 11° WNW 17:22:19 10° NW visible
